Temp_Advection
nan nan nan nan nan nan nan nan nan nan nan nan nan nan nan nan nan nan nan nan nan nan nan nan nan nan nan nan nan nan nan nan nan nan nan nan nan nan nan nan nan nan nan
nan 0 0 0 0 -0 -0 0 0 0 0 0 0 -0 -0 -0 -0 0 0 0 -0 -0 -0 0 0 0 0 0 0 0 0 -0 0 0 0 -0 -0 -0 0 0 0 0 nan
nan 0 0 0 0 0 0 -0 -0 -0 -1 -0 -0 -0 -0 0 0 0 -0 -0 -0 0 0 0 0 0 0 0 0 -0 0 0 -0 0 -0 -0 -0 -0 0 0 0 0 nan
nan 0 0 0 0 -0 -1 -0 -1 -1 -0 -0 -0 0 0 0 -0 -0 -0 -0 0 0 0 0 0 0 0 0 0 0 1 1 0 0 0 0 0 -0 -0 -0 0 0 nan
nan 1 0 0 0 -0 -0 0 0 0 0 0 0 0 0 -0 -0 0 0 0 0 0 0 0 0 0 0 0 0 0 0 1 1 0 0 0 0 0 0 -0 -0 0 nan
nan 0 0 0 0 -0 -0 0 0 0 1 0 0 0 0 0 0 0 0 0 0 0 0 0 0 0 0 0 -0 -0 0 0 0 0 0 0 -0 -0 0 0 -0 0 nan
nan 1 0 1 0 -0 0 0 1 0 0 0 0 0 0 0 0 0 0 0 0 -0 -0 0 0 0 0 0 0 0 0 0 0 0 0 0 -0 0 -0 0 0 0 nan
nan 1 0 1 1 0 0 1 1 0 0 0 0 0 0 0 0 0 0 0 0 -0 -0 0 0 0 0 0 0 0 0 -0 0 0 -0 0 0 0 0 0 0 0 nan
nan 1 1 1 1 0 1 1 1 0 0 0 0 0 0 0 0 0 0 0 0 0 0 0 -0 -0 0 0 0 -0 -0 0 0 1 0 -0 -0 0 0 0 0 1 nan
nan 0 1 1 1 1 1 1 0 0 0 0 0 0 0 0 0 0 0 0 0 0 0 0 -0 -0 -0 -0 0 -0 0 0 0 1 0 0 0 -0 -0 0 0 1 nan
nan 0 1 1 1 1 0 0 -0 0 0 0 0 0 0 0 0 0 0 0 0 0 0 0 -0 -0 0 0 0 0 0 0 0 0 0 -0 -0 -0 0 0 0 0 nan
nan 0 0 1 1 0 0 -0 -0 0 0 0 0 0 0 0 0 0 0 0 0 -0 0 0 0 0 0 -0 0 0 0 0 0 0 0 0 0 0 0 0 0 0 nan
nan 0 0 0 0 -0 0 0 0 0 0 0 0 0 0 0 0 0 0 0 0 -0 0 0 0 0 0 0 0 0 0 0 0 0 0 0 0 0 0 0 0 0 nan
nan -0 -0 -0 -0 -0 0 0 0 0 0 0 0 0 0 0 0 0 0 0 0 0 0 0 0 0 -0 0 0 0 0 0 0 0 -0 0 0 0 0 0 0 0 nan
nan 0 -0 -0 -0 -0 0 0 -0 -0 0 0 1 0 0 0 0 0 0 0 0 0 0 0 -0 0 -0 0 0 0 0 0 -0 -0 0 0 0 0 0 0 0 0 nan
nan 0 -0 -0 0 0 -0 -0 -0 0 0 1 1 1 0 0 1 0 -0 -0 -0 0 0 0 0 -0 -0 0 0 0 0 -0 -0 0 0 0 0 0 0 0 0 0 nan
nan 0 -0 0 0 0 0 -0 0 0 1 1 1 1 1 0 0 0 0 0 0 0 0 -0 -0 0 0 0 0 0 -0 0 0 0 0 0 0 0 0 -0 0 0 nan
nan 0 0 0 0 0 0 -0 -0 0 1 1 1 1 0 0 0 0 1 1 0 0 0 -0 0 0 0 0 0 0 0 0 0 0 0 0 -0 -0 -0 -0 -0 -0 nan
nan 0 0 1 1 1 -0 -1 -0 0 1 1 1 1 1 0 0 0 1 1 0 0 0 0 0 0 -0 -0 0 0 0 0 0 0 0 0 0 0 -0 -0 -0 -0 nan
nan -0 0 1 1 -0 -1 0 1 1 1 1 1 1 1 0 1 1 1 0 0 0 0 0 -0 -0 -0 0 0 0 0 0 0 0 -0 -0 0 0 0 0 0 -0 nan
nan 0 1 1 0 -1 0 1 1 1 1 1 1 1 1 1 1 1 0 0 0 0 0 -0 -0 -0 0 0 0 0 0 0 0 -0 -0 0 -0 0 0 0 -0 -0 nan
nan 0 0 0 -0 0 1 1 1 1 1 1 1 1 1 1 1 0 0 0 0 0 -0 -0 -0 -0 -0 -0 0 0 0 0 -0 0 0 -0 -0 0 0 0 0 0 nan
nan 0 0 0 0 0 0 0 0 0 1 1 1 1 1 1 0 0 0 0 0 0 -0 -1 -1 -0 -0 -0 0 0 -0 0 0 0 -0 -0 -0 0 0 0 0 0 nan
nan 0 0 0 0 0 0 0 0 0 0 0 0 0 1 1 0 0 0 0 -0 -1 -1 -1 -0 -0 -0 -0 0 0 0 0 0 0 -0 -0 0 0 0 0 0 0 nan
nan 0 0 0 0 0 0 0 0 0 0 0 0 0 1 1 0 0 0 -0 -0 -1 -1 -0 0 -0 -0 0 0 0 0 0 0 0 -0 0 0 0 -0 0 0 0 nan
nan nan nan nan nan nan nan nan nan nan nan nan nan nan nan nan nan nan nan nan nan nan nan nan nan nan nan nan nan nan nan nan nan nan nan nan nan nan nan nan nan nan nan
Wind_Speed
8 6 8 9 11 16 15 15 17 17 16 15 14 14 13 12 13 13 13 13 12 13 15 15 13 13 15 14 15 16 19 20 19 20 22 21 16 17 20 16 16 13 14
13 7 6 8 12 13 17 15 14 16 18 16 14 12 12 11 10 11 14 13 15 17 18 18 19 19 20 21 20 20 20 22 21 19 19 17 18 16 19 13 11 11 13
22 14 9 9 11 14 16 17 17 16 19 17 18 19 17 16 15 17 16 20 19 21 21 21 23 24 24 24 24 24 22 22 21 18 18 12 11 11 11 11 10 10 14
26 18 16 13 12 13 19 20 20 19 20 20 20 18 16 13 12 15 18 18 19 21 22 23 24 24 25 25 25 24 24 22 25 23 24 23 23 15 13 13 11 13 19
28 24 22 16 14 17 18 19 20 21 21 20 20 19 18 18 18 18 19 20 22 23 24 24 25 24 25 25 25 25 25 24 22 22 23 25 24 23 21 18 19 16 12
21 27 21 25 17 15 18 18 19 20 19 19 18 17 16 16 16 18 18 19 21 22 21 21 21 20 20 20 19 19 18 18 19 21 20 20 19 19 21 20 20 17 18
23 26 20 24 19 15 15 19 19 19 18 18 17 16 15 16 16 18 18 18 18 19 20 19 19 20 20 21 21 20 20 20 18 17 17 21 21 23 20 21 19 19 17
19 25 22 20 19 18 18 19 20 19 18 17 16 15 16 17 18 18 18 18 18 19 20 21 21 22 22 22 21 21 21 21 19 18 19 20 20 20 17 17 16 17 20
12 15 24 17 16 18 20 21 22 21 19 16 14 15 16 16 16 16 17 18 19 19 20 20 20 20 19 18 18 18 18 18 18 16 16 18 19 19 19 22 20 19 15
9 9 16 15 16 17 19 21 21 19 16 15 14 15 15 15 15 16 17 17 18 18 18 18 18 18 18 18 18 18 18 18 17 15 15 16 18 19 20 18 17 16 16
8 7 9 15 19 18 19 19 19 18 16 15 14 14 14 14 15 16 17 17 18 18 18 18 18 18 17 16 16 17 17 16 16 16 17 16 17 18 17 16 15 14 12
5 7 10 14 16 19 21 21 20 17 16 14 13 13 14 15 16 16 16 16 17 16 16 16 16 16 15 14 14 14 13 13 13 13 14 14 13 12 12 9 10 10 12
6 9 12 14 16 18 21 21 18 16 14 13 14 14 15 16 17 16 15 15 16 16 15 15 16 15 14 14 12 12 11 10 10 10 10 9 9 9 8 8 10 7 9
7 10 14 15 16 16 18 18 17 17 15 14 14 14 14 15 15 15 16 16 17 17 16 16 16 15 14 13 12 11 10 9 8 7 8 8 8 7 7 6 6 5 6
10 13 15 17 18 18 18 18 18 17 15 14 15 15 15 15 16 16 16 15 15 16 17 16 15 13 12 11 9 8 7 8 7 6 5 4 4 4 4 4 5 5 6
15 17 18 19 20 19 19 20 19 18 16 16 16 16 16 16 16 16 16 15 14 14 13 12 11 10 9 8 7 6 7 6 6 5 4 3 3 3 4 4 5 6 6
18 18 21 22 21 20 21 21 20 19 18 17 17 17 16 16 17 16 16 16 14 11 10 10 9 8 7 6 7 7 6 6 5 4 3 2 2 2 2 3 3 4 4
15 19 22 23 22 19 19 18 18 18 17 17 17 16 16 17 17 16 16 15 13 11 10 10 9 9 8 8 7 6 6 4 4 4 3 2 2 2 2 2 2 3 3
14 14 19 21 20 19 19 19 19 18 18 18 18 18 18 18 17 16 16 14 13 12 11 11 11 10 9 8 7 6 6 5 4 4 3 2 3 2 2 2 2 4 4
10 8 10 17 19 19 20 19 19 18 18 16 17 17 18 18 18 17 16 14 13 13 12 11 12 11 10 9 7 7 6 5 4 3 3 3 3 2 3 2 2 3 5
8 10 14 16 17 18 17 18 17 17 15 15 16 16 17 17 18 17 16 14 13 14 14 14 13 12 11 10 7 7 6 5 5 5 4 3 3 3 2 3 4 4 4
6 9 11 15 15 14 15 16 16 15 15 14 15 16 17 17 16 14 13 14 14 15 15 16 16 14 13 11 8 6 6 6 6 6 6 6 5 4 4 4 3 4 4
4 5 6 7 8 10 12 13 14 14 13 13 13 14 15 15 13 13 14 15 16 17 18 18 17 15 14 12 10 9 8 8 8 8 8 7 7 6 6 6 4 5 6
3 4 4 3 5 7 9 12 13 13 13 12 12 14 14 13 13 14 15 16 19 20 20 20 19 16 15 14 13 12 11 11 10 9 9 9 9 8 8 8 7 7 8
1 2 4 5 6 7 8 10 12 13 13 13 14 15 13 13 13 15 16 17 18 20 20 19 18 18 17 13 13 14 14 13 12 13 12 12 11 11 10 10 9 9 9
7 7 7 7 8 9 10 10 11 11 12 13 15 16 13 14 13 15 17 19 20 21 21 21 21 20 18 17 16 16 16 15 16 16 15 14 13 13 12 12 11 11 11
Wind_Direction
224 244 238 208 205 201 205 205 207 201 198 206 212 216 222 225 222 229 233 235 236 246 257 257 253 250 257 257 260 261 265 272 278 283 284 296 293 286 285 273 275 274 267
215 216 229 227 216 210 213 210 216 212 207 208 211 219 223 228 233 243 240 250 251 255 258 260 260 258 264 269 273 272 272 275 277 269 277 289 293 280 275 260 250 256 271
227 218 219 233 227 210 207 203 202 204 207 210 215 221 230 233 240 243 254 251 260 264 267 268 269 271 270 272 271 271 270 271 272 272 273 284 268 286 274 276 271 278 285
231 212 218 240 224 217 219 213 217 220 224 226 231 233 240 246 236 235 253 269 267 269 271 272 272 273 273 272 273 273 275 270 267 266 265 267 270 266 279 276 271 285 294
227 211 217 229 224 227 225 225 224 224 228 229 232 235 237 243 253 260 264 267 271 271 272 273 273 272 272 274 275 276 275 273 270 266 265 267 271 268 267 274 281 277 278
232 214 209 221 233 240 241 232 227 227 227 228 229 232 240 251 259 263 266 269 271 273 273 272 273 273 273 275 277 278 279 278 273 265 262 263 259 261 269 266 278 276 279
228 213 202 206 222 240 244 234 230 227 225 224 228 237 247 255 260 266 267 270 271 272 273 274 274 275 276 276 278 279 278 274 269 267 264 261 260 269 275 273 273 274 277
217 216 211 219 219 231 232 226 222 222 222 225 234 244 255 262 265 266 266 266 267 272 277 277 277 277 278 278 276 275 274 272 270 261 260 257 260 260 265 264 263 279 282
232 215 219 210 211 224 222 219 215 220 224 231 241 253 258 259 261 262 264 267 270 273 276 276 277 278 279 280 280 277 276 276 275 264 251 258 260 258 263 264 265 265 264
220 220 216 202 202 216 213 211 211 214 220 230 242 249 252 255 260 263 266 269 273 275 277 279 279 279 279 278 278 277 275 272 269 261 251 250 251 257 259 264 262 265 264
237 218 199 188 197 206 212 206 207 212 219 230 238 245 252 258 263 267 270 271 273 274 276 277 277 277 276 276 276 276 277 272 268 257 250 252 254 259 262 265 267 265 261
207 203 193 185 181 192 191 195 205 212 221 230 243 255 264 268 270 272 273 275 275 276 277 276 276 274 273 274 275 277 274 266 261 256 254 254 257 260 261 255 253 259 270
175 175 182 185 187 191 192 198 208 213 223 234 246 257 264 269 271 273 274 276 277 276 275 274 273 272 272 272 273 269 261 252 244 239 240 244 247 247 243 247 261 256 259
203 187 185 188 188 190 198 203 206 215 224 236 248 256 263 266 268 270 271 274 275 274 273 272 271 271 269 270 268 257 246 241 232 222 226 240 230 223 238 247 249 252 252
219 208 196 191 192 196 201 205 213 223 233 242 250 256 262 266 270 272 270 268 268 269 268 267 268 262 260 261 253 234 223 219 218 225 215 192 198 216 233 243 249 250 257
238 219 212 205 203 202 206 212 218 228 238 247 252 258 263 267 269 272 273 273 272 271 270 261 254 252 254 246 236 210 203 196 185 184 193 221 225 236 260 265 272 275 275
240 227 219 216 211 207 209 216 222 233 239 243 246 253 258 260 264 271 278 278 274 266 262 258 243 241 235 219 194 174 179 181 199 199 220 230 260 273 287 297 303 290 292
258 241 231 222 215 207 207 213 222 234 242 244 251 258 258 262 266 270 276 273 271 264 249 243 223 220 209 204 190 185 195 199 212 214 206 236 273 290 291 311 316 309 319
260 259 237 223 208 202 207 212 224 236 245 250 256 259 260 262 265 269 273 267 262 258 242 231 214 205 199 205 208 211 203 199 205 209 210 232 269 280 300 314 331 329 342
265 252 209 195 193 201 213 220 230 237 244 251 256 256 258 263 267 271 271 262 254 243 233 221 207 202 205 216 216 212 210 208 213 223 232 236 273 287 277 290 322 319 337
234 204 189 189 196 206 216 219 228 238 246 251 253 256 259 262 266 275 266 249 243 234 229 213 211 213 215 216 216 217 215 216 225 238 249 256 285 278 265 272 296 309 325
198 183 183 187 203 211 213 220 229 236 243 249 253 256 260 265 267 258 242 235 231 227 225 217 217 218 220 224 220 225 226 230 233 240 251 265 280 279 275 274 285 294 300
129 156 177 188 200 211 217 224 231 236 239 243 251 258 261 266 258 247 238 233 226 223 221 217 220 224 229 232 233 234 241 244 245 249 257 265 270 275 277 285 295 300 309
138 149 155 183 223 235 238 242 243 243 241 246 256 264 263 264 251 242 235 233 228 221 218 220 224 229 234 238 244 250 251 251 254 261 262 266 269 272 278 285 291 296 303
265 249 247 237 240 243 246 250 248 246 246 247 254 264 265 264 252 246 243 235 231 225 227 230 233 236 242 248 253 254 257 261 262 262 264 267 267 271 276 278 283 289 295
277 270 264 261 257 257 260 257 257 255 256 256 255 258 267 269 255 249 246 237 231 229 232 235 238 240 245 247 250 253 256 256 260 261 265 267 267 269 274 277 280 285 293
Height
1516 1516 1517 1519 1521 1524 1528 1530 1532 1535 1538 1540 1543 1546 1546 1548 1551 1553 1554 1554 1555 1555 1555 1556 1557 1558 1557 1558 1558 1558 1557 1556 1556 1555 1554 1553 1552 1551 1550 1549 1550 1549 1548
1511 1513 1515 1516 1518 1521 1523 1526 1530 1532 1534 1538 1540 1543 1545 1546 1548 1548 1549 1550 1551 1551 1551 1552 1553 1553 1553 1553 1553 1553 1552 1552 1552 1552 1551 1549 1549 1548 1547 1546 1546 1545 1544
1506 1510 1511 1513 1516 1518 1520 1522 1526 1530 1531 1534 1536 1537 1539 1541 1543 1544 1545 1545 1546 1547 1547 1548 1548 1548 1548 1548 1548 1548 1547 1547 1547 1548 1548 1548 1545 1544 1544 1544 1543 1543 1542
1501 1503 1507 1510 1513 1515 1516 1519 1522 1525 1527 1530 1532 1534 1536 1538 1539 1540 1540 1541 1542 1542 1542 1543 1543 1542 1542 1542 1542 1542 1542 1541 1541 1543 1543 1543 1542 1542 1540 1541 1541 1540 1539
1494 1497 1502 1506 1509 1511 1513 1516 1519 1521 1524 1527 1529 1531 1533 1534 1535 1536 1537 1537 1537 1537 1537 1538 1538 1537 1537 1537 1537 1537 1537 1536 1537 1537 1537 1538 1538 1537 1536 1534 1536 1537 1537
1489 1493 1497 1501 1504 1507 1510 1512 1515 1518 1521 1523 1526 1528 1529 1531 1532 1532 1533 1533 1533 1532 1533 1533 1532 1532 1532 1531 1531 1531 1531 1531 1531 1531 1532 1532 1532 1530 1531 1531 1531 1532 1533
1485 1488 1494 1493 1499 1503 1506 1509 1512 1515 1518 1520 1522 1524 1525 1527 1527 1528 1528 1528 1528 1528 1528 1528 1528 1528 1528 1527 1527 1527 1526 1526 1526 1526 1527 1527 1528 1527 1527 1527 1527 1528 1527
1481 1486 1489 1492 1495 1499 1502 1505 1508 1511 1515 1516 1518 1520 1521 1523 1524 1524 1524 1524 1524 1524 1524 1524 1524 1524 1523 1523 1522 1522 1521 1521 1521 1521 1522 1522 1523 1522 1523 1522 1524 1523 1524
1479 1483 1486 1488 1493 1494 1498 1501 1505 1507 1512 1513 1516 1517 1518 1519 1520 1520 1520 1520 1520 1520 1520 1520 1520 1519 1519 1518 1518 1517 1517 1516 1515 1516 1517 1517 1517 1518 1518 1519 1519 1519 1520
1476 1479 1481 1484 1488 1490 1494 1499 1503 1506 1508 1511 1512 1514 1515 1516 1516 1517 1517 1516 1516 1516 1516 1516 1516 1515 1515 1514 1513 1513 1512 1511 1511 1511 1512 1512 1512 1513 1513 1514 1514 1514 1515
1473 1475 1477 1481 1485 1487 1489 1496 1500 1503 1505 1508 1509 1511 1512 1513 1513 1513 1513 1513 1512 1512 1512 1512 1512 1511 1511 1510 1508 1509 1508 1507 1507 1508 1508 1508 1509 1509 1508 1508 1509 1509 1511
1472 1473 1476 1479 1480 1482 1487 1493 1498 1500 1502 1505 1507 1508 1510 1510 1510 1509 1509 1509 1508 1508 1508 1508 1508 1507 1507 1505 1504 1504 1504 1503 1503 1504 1505 1504 1504 1504 1504 1503 1506 1505 1508
1471 1473 1476 1478 1481 1484 1486 1490 1494 1496 1499 1502 1503 1504 1506 1507 1506 1505 1505 1505 1505 1504 1503 1503 1504 1504 1502 1502 1500 1499 1499 1500 1500 1500 1501 1501 1501 1502 1503 1502 1504 1500 1504
1471 1472 1474 1476 1480 1484 1486 1489 1491 1493 1495 1497 1499 1501 1503 1503 1502 1501 1501 1501 1502 1501 1500 1499 1499 1499 1497 1497 1497 1496 1497 1498 1498 1498 1498 1498 1499 1500 1500 1500 1501 1500 1501
1470 1472 1472 1474 1477 1481 1484 1486 1488 1490 1492 1494 1496 1497 1499 1499 1499 1498 1497 1497 1497 1497 1497 1496 1496 1495 1494 1494 1493 1493 1493 1496 1497 1497 1497 1497 1498 1498 1498 1499 1499 1499 1499
1467 1469 1471 1473 1475 1477 1480 1482 1485 1487 1489 1490 1492 1494 1495 1494 1495 1496 1495 1493 1491 1491 1492 1492 1493 1493 1493 1492 1492 1492 1493 1494 1495 1496 1496 1497 1497 1496 1498 1497 1497 1498 1497
1464 1466 1467 1469 1472 1474 1476 1479 1481 1483 1486 1488 1488 1489 1491 1491 1491 1490 1491 1491 1490 1487 1487 1490 1490 1492 1492 1492 1491 1491 1493 1494 1495 1494 1495 1495 1496 1495 1496 1496 1495 1496 1495
1460 1461 1463 1465 1468 1471 1473 1475 1477 1479 1482 1483 1484 1484 1485 1487 1487 1486 1487 1488 1489 1487 1485 1486 1487 1490 1490 1493 1492 1491 1493 1493 1495 1495 1494 1495 1495 1495 1495 1494 1494 1494 1493
1454 1454 1456 1460 1463 1466 1468 1471 1473 1476 1478 1479 1480 1481 1482 1482 1483 1483 1483 1484 1485 1485 1484 1484 1486 1487 1490 1492 1491 1492 1492 1492 1493 1494 1494 1494 1494 1495 1493 1493 1493 1493 1491
1450 1450 1452 1455 1458 1461 1463 1466 1469 1472 1473 1475 1477 1478 1478 1479 1479 1479 1480 1480 1481 1483 1482 1482 1485 1486 1488 1490 1491 1491 1491 1492 1492 1493 1493 1493 1493 1493 1493 1493 1492 1492 1490
1447 1448 1449 1452 1455 1457 1460 1463 1466 1469 1471 1472 1473 1475 1475 1475 1475 1474 1475 1477 1478 1480 1480 1481 1483 1485 1487 1489 1489 1490 1490 1491 1491 1492 1492 1492 1492 1492 1492 1492 1491 1490 1488
1446 1447 1448 1450 1452 1455 1458 1461 1464 1466 1468 1469 1470 1471 1472 1471 1471 1472 1472 1473 1475 1477 1477 1480 1482 1484 1486 1487 1488 1489 1489 1490 1490 1490 1490 1490 1490 1490 1490 1490 1490 1489 1488
1447 1448 1449 1451 1453 1455 1458 1460 1462 1463 1464 1466 1467 1468 1468 1467 1468 1468 1469 1471 1473 1474 1476 1478 1480 1482 1484 1485 1486 1487 1488 1488 1488 1489 1489 1489 1489 1488 1488 1488 1487 1487 1486
1449 1449 1450 1451 1453 1455 1457 1458 1459 1461 1462 1462 1462 1464 1464 1463 1464 1465 1466 1468 1470 1472 1474 1476 1478 1480 1481 1482 1484 1485 1486 1486 1487 1487 1487 1486 1486 1486 1486 1485 1485 1485 1483
1450 1451 1451 1452 1453 1454 1454 1455 1456 1457 1458 1459 1459 1460 1461 1460 1461 1462 1463 1465 1467 1470 1472 1474 1476 1477 1478 1480 1481 1482 1483 1484 1484 1484 1484 1484 1483 1483 1483 1482 1482 1482 1481
1450 1450 1450 1451 1451 1452 1453 1453 1454 1454 1455 1455 1455 1456 1457 1458 1458 1459 1461 1462 1464 1466 1468 1470 1472 1473 1475 1476 1477 1478 1479 1480 1480 1479 1480 1480 1480 1480 1479 1479 1479 1479 1478